Cosmos 2233 Rocket - Orbit

View from above orbital plane
View from above orbital plane
View from above satellite
View from above satellite

Ground track
Ground track

The orbit data is extracted from the following two-line orbital elements,

1 22488U 93008B   13140.18474356  .00000098  00000-0  82226-4 0  6247
2 22488 082.9424 106.3961 0026830 079.1121 357.6042 13.77578177 19247
Epoch (UTC): 20 May 2013 04:26:01
Eccentricity: 0.0026830
inclination: 82.9424°
perigee height: 953 km
apogee height: 992 km
right ascension of ascending node: 106.3961°
argument of perigee: 79.1121°
revolutions per day: 13.77578177
mean anomaly at epoch: 357.6042°
orbit number at epoch: 1924

The dashed part of the orbit path shows where the satellite is in the earth's shadow,  

Developed and maintained by Chris Peat, Heavens-Above GmbH. Please read the updated FAQ before sending e-mail. Imprint. DLR